Flag for U.S.A. Weather past 2 weeks in Bismarck, North Dakota, U.S.A.

Now
66 °F

Clear.


Feels Like: 66 °F
Forecast: 57 / 95 °F
Wind: 5 mph from Southeast

Location: Bismarck Municipal Airport

Current Time: Aug 29, 2015 at 1:32:26 AM

Latest Report: Aug 29, 2015 at 12:52 AM


Visibility: 10 mi

Pressure: 29.89 "Hg (28.15 "Hg at 513m altitude)

Humidity: 93%

Dew point: 64 °F

Location of BismarckLocation

Historic Weather in Bismarck — Graph

°F

Bismarck temperature yesterday

Maximum temperature yesterday: 89 °F (at 3:52 PM)
Minimum temperature yesterday: 59 °F (at 6:52 AM)
Average temperature yesterday: 74 °F

Past Weeks' High & Low Weather Summary

 TemperatureHumidityPressure
High105 °F (Aug 15, 4:52 PM)97% (Aug 14, 3:52 AM)30.22 "Hg (Aug 14, 3:52 AM)
Low43 °F (Aug 24, 6:52 AM)20% (Aug 15, 4:52 PM)29.47 "Hg (Aug 22, 3:52 AM)
Average67 °F66%29.93 "Hg
* Reported Aug 13 11:52 PM — Aug 28 11:52 PM, Bismarck, Weather by CustomWeather, © 2015

Note: Actual official high and low records may vary slightly from our data, if they occured in-between our weather recording intervals... More about our weather records

Advertising

Bismarck weather history for previous 24 hours

 ConditionsComfort  
Time TempWeatherWind HumidityBarometerVisibility
11:52 PM
Fri, Aug 28
69 °FClear.6 mph90%29.89 "Hg10 mi
10:52 PM70 °FClear.3 mph87%29.88 "Hg10 mi
9:52 PM71 °FClear.3 mph81%29.88 "Hg10 mi
8:52 PM72 °FSunny.7 mph81%29.87 "Hg10 mi
7:52 PM78 °FSunny.6 mph71%29.86 "Hg10 mi
6:52 PM87 °FSunny.3 mph46%29.85 "Hg10 mi
5:52 PM89 °FSunny.7 mph41%29.85 "Hg10 mi
4:52 PM89 °FSunny.10 mph43%29.84 "Hg10 mi
3:52 PM89 °FSunny.10 mph45%29.84 "Hg10 mi
2:52 PM88 °FSunny.12 mph48%29.86 "Hg10 mi
1:52 PM85 °FSunny.9 mph53%29.86 "Hg10 mi
12:52 PM82 °FSunny.6 mph56%29.88 "Hg10 mi
11:52 AM79 °FSunny.7 mph60%29.89 "Hg10 mi
10:52 AM74 °FSunny.8 mph69%29.88 "Hg10 mi
9:52 AM70 °FSunny.7 mph79%29.89 "Hg10 mi
8:52 AM66 °FSunny.No wind87%29.89 "Hg10 mi
7:52 AM60 °FClear.No wind96%29.89 "Hg10 mi
6:52 AM59 °FClear.6 mph96%29.89 "Hg10 mi
5:52 AM63 °FClear.3 mph90%29.88 "Hg10 mi
4:52 AM61 °FClear.No wind93%29.88 "Hg10 mi
3:52 AM66 °FClear.7 mph84%29.88 "Hg10 mi
2:52 AM66 °FClear.5 mph84%29.88 "Hg10 mi
1:52 AM64 °FClear.3 mph84%29.90 "Hg10 mi
Weather by CustomWeather, © 2015

See weather overviewHow to use our weather pages